Location: Go�ngahuizen
(53.0821°N, 5.8849°E)
Time: 16:05:21
(UTC+00:00)

RESURS DK-1 - Pass Details

Date: 09 April 2020
Orbit: 557 x 561 km, 69.9° (Epoch: 25 May)

Event Time Altitude Azimuth Distance (km) Brightness Sun altitude
Rises 20:42:46 0° 325° (NW) 2,764 7.5 -18.6°
Reaches altitude 10° 20:44:59 10° 323° (NW) 1,863 6.2 -18.8°
Maximum altitude 20:49:08 72° 239° (WSW) 596 2.4 -19.2°
Enters shadow 20:50:15 46° 171° (S) 765 2.6 -19.4°
